IRIDIUM 106 1 41917U 17003A 26037.13997901 .00000079 00000+0 21013-4 0 9996 2 41917 86.4023 143.3324 0001824 89.5510 270.5895 14.34218149474424 IRIDIUM 103 1 41918U 17003B 26037.12730454 .00000410 00000+0 13917-3 0 9996 2 41918 86.4020 143.2378 0002509 93.7675 266.3808 14.34218151474442 IRIDIUM 109 1 41919U 17003C 26036.78479458 .00000412 00000+0 14000-3 0 9998 2 41919 86.4024 143.4381 0002132 95.6535 264.4904 14.34219449474369 IRIDIUM 102 1 41920U 17003D 26036.75307833 .00000408 00000+0 13877-3 0 9990 2 41920 86.4023 143.3779 0002143 97.5423 262.6016 14.34216183474444 IRIDIUM 105 1 41921U 17003E 26037.07163732 .00000371 00000+0 12492-3 0 9996 2 41921 86.3969 111.7211 0002216 98.2060 261.9387 14.34402508476341 IRIDIUM 104 1 41922U 17003F 26036.76576688 .00000398 00000+0 13497-3 0 9995 2 41922 86.4018 143.4126 0002477 100.4473 259.7002 14.34219760474431 IRIDIUM 114 1 41923U 17003G 26036.84187107 .00000486 00000+0 16638-3 0 9997 2 41923 86.4022 143.3649 0002343 97.2211 262.9252 14.34222294474429 IRIDIUM 108 1 41924U 17003H 26037.14924017 .00000146 00000+0 45114-4 0 9996 2 41924 86.3965 111.5761 0002074 100.7120 259.4309 14.34218943476328 IRIDIUM 112 1 41925U 17003J 26036.75942397 .00000470 00000+0 16073-3 0 9995 2 41925 86.4017 143.2475 0002207 100.1159 260.0286 14.34218708474437 IRIDIUM 111 1 41926U 17003K 26037.16535120 .00000215 00000+0 69548-4 0 9997 2 41926 86.4017 143.1457 0002230 97.0352 263.1098 14.34218697474478 IRIDIUM 113 1 42803U 17039A 26037.00577799 .00000039 00000+0 67131-5 0 9993 2 42803 86.3982 16.9835 0002356 89.2779 270.8687 14.34217817452383 IRIDIUM 123 1 42804U 17039B 26036.97748750 .00000058 00000+0 13703-4 0 9992 2 42804 86.3928 48.4701 0002346 84.9148 275.2316 14.34217813451144 IRIDIUM 120 1 42805U 17039C 26036.99943398 .00000179 00000+0 56702-4 0 9990 2 42805 86.3967 16.7853 0001930 84.6182 275.5234 14.34218687452375 IRIDIUM 115 1 42806U 17039D 26036.94463767 .00000555 00000+0 15887-3 0 9999 2 42806 86.4506 16.9190 0002267 76.7272 283.4182 14.43280938455335 IRIDIUM 118 1 42807U 17039E 26037.00920072 .00000007 00000+0 -43961-5 0 9994 2 42807 86.3924 48.4556 0002226 91.7721 268.3729 14.34217103451144 IRIDIUM 117 1 42808U 17039F 26037.02822815 .00000037 00000+0 62276-5 0 9995 2 42808 86.3927 48.4063 0002301 87.0722 273.0737 14.34217543451177 IRIDIUM 126 1 42809U 17039G 26037.05359809 .00000038 00000+0 66757-5 0 9996 2 42809 86.3928 48.4447 0002389 88.9910 271.1560 14.34217449451156 IRIDIUM 124 1 42810U 17039H 26036.87844388 .00000559 00000+0 16026-3 0 9998 2 42810 86.4532 345.2580 0002294 81.1720 278.9741 14.43279720456178 IRIDIUM 128 1 42811U 17039J 26037.04434703 .00000349 00000+0 11751-3 0 9992 2 42811 86.3921 79.9942 0002014 90.0390 270.1037 14.34217269451183 IRIDIUM 121 1 42812U 17039K 26037.00285414 .00000205 00000+0 65969-4 0 9994 2 42812 86.3930 48.4928 0002114 90.5871 269.5567 14.34217598451027 IRIDIUM 133 1 42955U 17061A 26037.07605008 .00000183 00000+0 58257-4 0 9996 2 42955 86.3921 80.0955 0002226 91.6820 268.4631 14.34218019435983 IRIDIUM 100 1 42956U 17061B 26037.06970764 .00000321 00000+0 10742-3 0 9990 2 42956 86.3921 80.0198 0002179 92.3323 267.8122 14.34217803435984 IRIDIUM 122 1 42957U 17061C 26036.61938351 .00000138 00000+0 42040-4 0 9990 2 42957 86.3920 80.2080 0002270 91.0153 269.1303 14.34217543435926 IRIDIUM 129 1 42958U 17061D 26037.06336404 .00000138 00000+0 42342-4 0 9997 2 42958 86.3921 80.0879 0002443 100.6840 259.4631 14.34218671436003 IRIDIUM 119 1 42959U 17061E 26037.03165215 .00000242 00000+0 79358-4 0 9998 2 42959 86.3922 80.0965 0002397 94.0239 266.1230 14.34217992436013 IRIDIUM 107 1 42960U 17061F 26037.12044814 .00000197 00000+0 63387-4 0 9995 2 42960 86.3923 80.0798 0002320 84.0376 276.1084 14.34217971436034 IRIDIUM 132 1 42961U 17061G 26036.98725272 .00000324 00000+0 10877-3 0 9990 2 42961 86.3920 80.1162 0002205 89.6630 270.4819 14.34217832436011 IRIDIUM 136 1 42962U 17061H 26037.01896720 .00000292 00000+0 97230-4 0 9996 2 42962 86.3921 80.1089 0002452 91.5706 268.5770 14.34217647436031 IRIDIUM 139 1 42963U 17061J 26037.09507683 .00000336 00000+0 11288-3 0 9999 2 42963 86.3921 80.1366 0002136 90.2816 269.8625 14.34217374436059 IRIDIUM 125 1 42964U 17061K 26037.01262307 .00000199 00000+0 63896-4 0 9993 2 42964 86.3924 80.2298 0002732 87.0003 273.1505 14.34217542436054 IRIDIUM 135 1 43070U 17083A 26036.98674980 .00000059 00000+0 13957-4 0 9993 2 43070 86.3974 16.8364 0002214 88.3585 271.7864 14.34218031425347 IRIDIUM 138 1 43071U 17083B 26036.94234985 .00000405 00000+0 13737-3 0 9997 2 43071 86.3990 16.5303 0002575 90.4777 269.6713 14.34220044425327 IRIDIUM 116 1 43072U 17083C 26036.98040493 .00000275 00000+0 91005-4 0 9991 2 43072 86.3972 16.8267 0001876 83.5969 276.5440 14.34218620425364 IRIDIUM 130 1 43073U 17083D 26036.94869329 .00000127 00000+0 38247-4 0 9990 2 43073 86.3983 17.1024 0002093 80.1993 279.9439 14.34218450425304 IRIDIUM 151 1 43074U 17083E 26036.99309181 .00000218 00000+0 70814-4 0 9998 2 43074 86.3976 16.8760 0002153 86.9401 273.2041 14.34217495425332 IRIDIUM 134 1 43075U 17083F 26036.96137866 .00000142 00000+0 43765-4 0 9996 2 43075 86.3977 16.8961 0002198 82.2870 277.8575 14.34216963425291 IRIDIUM 137 1 43076U 17083G 26036.97406090 .00000253 00000+0 83145-4 0 9995 2 43076 86.3978 16.9806 0001730 93.3987 266.7407 14.34217513425366 IRIDIUM 141 1 43077U 17083H 26036.96772012 .00000393 00000+0 13309-3 0 9994 2 43077 86.3974 16.8212 0002281 88.5775 271.5682 14.34220089425367 IRIDIUM 153 1 43078U 17083J 26036.91990184 .00000246 00000+0 80953-4 0 9999 2 43078 86.4012 345.3474 0002482 84.0564 276.0915 14.34217392426466 IRIDIUM 131 1 43079U 17083K 26036.95503664 .00000390 00000+0 13204-3 0 9991 2 43079 86.3980 17.0038 0002242 89.8540 270.2913 14.34214902425298 IRIDIUM 144 1 43249U 18030A 26036.92624191 .00000231 00000+0 75458-4 0 9993 2 43249 86.4010 345.2770 0002030 82.0739 278.0687 14.34218964411326 IRIDIUM 149 1 43250U 18030B 26036.93258506 .00000187 00000+0 59744-4 0 9999 2 43250 86.4007 345.2429 0002212 85.1783 274.9665 14.34218356411348 IRIDIUM 157 1 43251U 18030C 26036.88184506 .00000035 00000+0 54788-5 0 9998 2 43251 86.4012 345.3148 0002128 86.0337 274.1102 14.34217650411316 IRIDIUM 140 1 43252U 18030D 26036.97064101 .00000168 00000+0 53075-4 0 9991 2 43252 86.4009 345.2899 0002184 83.3197 276.8247 14.34218481411380 IRIDIUM 145 1 43253U 18030E 26036.88818710 .00000397 00000+0 13459-3 0 9990 2 43253 86.4013 345.2970 0001915 77.9618 282.1792 14.34217435411309 IRIDIUM 146 1 43254U 18030F 26036.93892791 -.00000017 00000+0 -13204-4 0 9998 2 43254 86.4005 345.2889 0001954 83.3758 276.7660 14.34217926411329 IRIDIUM 148 1 43255U 18030G 26036.90721495 .00000038 00000+0 63925-5 0 9995 2 43255 86.4010 345.3428 0002136 86.5489 273.5951 14.34218275411354 IRIDIUM 142 1 43256U 18030H 26036.94526903 .00000390 00000+0 13218-3 0 9996 2 43256 86.4007 345.2208 0001881 78.7219 281.4188 14.34219898411325 IRIDIUM 150 1 43257U 18030J 26036.91355266 .00000224 00000+0 73044-4 0 9996 2 43257 86.4013 345.3459 0002145 82.5787 277.5653 14.34217041411342 IRIDIUM 143 1 43258U 18030K 26036.89452904 .00000275 00000+0 91200-4 0 9991 2 43258 86.4015 345.4412 0002045 80.7283 279.4144 14.34218473411273 IRIDIUM 161 1 43478U 18047C 26036.78706548 .00000529 00000+0 15121-3 0 9996 2 43478 86.4544 143.4032 0002250 99.6577 260.4878 14.43282693406184 IRIDIUM 152 1 43479U 18047D 26037.14632302 .00000141 00000+0 43279-4 0 9990 2 43479 86.4019 143.1134 0002250 97.5414 262.6038 14.34217716403700 IRIDIUM 147 1 43480U 18047E 26037.15266484 .00000128 00000+0 38535-4 0 9991 2 43480 86.4018 143.1134 0001956 97.7954 262.3463 14.34217590403703 IRIDIUM 110 1 43481U 18047F 26037.15900815 .00000439 00000+0 14971-3 0 9997 2 43481 86.4020 143.1992 0002498 104.3242 255.8232 14.34219752403697 IRIDIUM 162 1 43482U 18047G 26037.12740293 .00000531 00000+0 15178-3 0 9990 2 43482 86.4542 143.1535 0002274 91.2956 268.8505 14.43277115406224 IRIDIUM 160 1 43569U 18061A 26037.10484309 .00000311 00000+0 10384-3 0 9993 2 43569 86.3961 111.6269 0002112 99.4512 260.6923 14.34218793394583 IRIDIUM 166 1 43570U 18061B 26037.13021354 -.00000014 00000+0 -12108-4 0 9994 2 43570 86.3965 111.5683 0001954 96.6335 263.5083 14.34217598394618 IRIDIUM 158 1 43571U 18061C 26037.16826918 .00000194 00000+0 62334-4 0 9990 2 43571 86.3968 111.5630 0002358 92.8487 267.2979 14.34218868394581 IRIDIUM 165 1 43572U 18061D 26037.19364098 .00000354 00000+0 11943-3 0 9997 2 43572 86.3968 111.5961 0002086 95.8385 264.3049 14.34219836394613 IRIDIUM 155 1 43573U 18061E 26037.08581582 .00000051 00000+0 11025-4 0 9991 2 43573 86.3959 111.5166 0002107 93.7302 266.4135 14.34217803394566 IRIDIUM 154 1 43574U 18061F 26037.20633315 .00000356 00000+0 12020-3 0 9991 2 43574 86.3968 111.5935 0002026 96.6839 263.4587 14.34221508394631 IRIDIUM 163 1 43575U 18061G 26037.18729754 .00000338 00000+0 11348-3 0 9994 2 43575 86.3969 111.5208 0002254 95.0074 265.1379 14.34218837394609 IRIDIUM 156 1 43576U 18061H 26037.09215830 .00000169 00000+0 53174-4 0 9996 2 43576 86.3963 111.5675 0002153 90.2986 269.8457 14.34218393394581 IRIDIUM 164 1 43577U 18061J 26037.14289785 .00000231 00000+0 75521-4 0 9993 2 43577 86.3966 111.5847 0002025 99.6006 260.5419 14.34218595394636 IRIDIUM 159 1 43578U 18061K 26037.11119592 .00000345 00000+0 11606-3 0 9998 2 43578 86.3965 111.5376 0002290 99.2633 260.8822 14.34217153394594 IRIDIUM 180 1 43922U 19002A 26036.97114043 .00000004 00000+0 -55704-5 0 9998 2 43922 86.3923 48.4342 0002250 94.3466 265.7987 14.34216013370187 IRIDIUM 176 1 43923U 19002B 26037.04929794 .00000534 00000+0 80757-4 0 9997 2 43923 86.6050 48.3636 0002462 89.4428 270.7071 14.72251251379954 IRIDIUM 168 1 43924U 19002C 26037.03457101 .00000004 00000+0 -58063-5 0 9994 2 43924 86.3927 48.4813 0002148 90.5921 269.5521 14.34217519370173 IRIDIUM 173 1 43925U 19002D 26036.95211622 .00000085 00000+0 23330-4 0 9997 2 43925 86.3925 48.4097 0002338 88.0741 272.0723 14.34218043370142 IRIDIUM 169 1 43926U 19002E 26037.13961588 .00000317 00000+0 97181-4 0 9995 2 43926 86.4177 79.9959 0002725 76.2419 283.9082 14.38611103371384 IRIDIUM 172 1 43927U 19002F 26036.94577445 .00000086 00000+0 23614-4 0 9992 2 43927 86.3927 48.4199 0002282 94.7486 265.3970 14.34217978370153 IRIDIUM 175 1 43928U 19002G 26036.90870844 .00001152 00000+0 17876-3 0 9995 2 43928 86.1539 347.7295 0001243 76.8099 283.3256 14.72254060379926 IRIDIUM 171 1 43929U 19002H 26036.99651338 .00000183 00000+0 58219-4 0 9990 2 43929 86.3936 48.6908 0002034 86.7571 273.3858 14.34217908370153 IRIDIUM 170 1 43930U 19002J 26036.98752073 .00000537 00000+0 81214-4 0 9993 2 43930 86.6049 48.3927 0002375 93.0936 267.0553 14.72249097379950 IRIDIUM 167 1 43931U 19002K 26036.99015817 .00000186 00000+0 59360-4 0 9990 2 43931 86.3926 48.4227 0002062 81.1563 278.9866 14.34219490370156 IRIDIUM 181 1 56726U 23068S 26037.14323410 .00000473 00000+0 13451-3 0 9991 2 56726 86.4503 111.5908 0002063 106.8494 253.2933 14.43309834143534 IRIDIUM 177 1 56727U 23068T 26037.17546710 .00000819 00000+0 10427-3 0 9999 2 56727 86.1951 30.9867 0002394 89.1143 271.0352 14.80226122146982 IRIDIUM 174 1 56728U 23068U 26036.97514331 .00000582 00000+0 88473-4 0 9995 2 56728 86.6058 48.5321 0002539 92.2218 267.9290 14.72249000146712 IRIDIUM 178 1 56729U 23068V 26037.09698324 .00001529 00000+0 19781-3 0 9992 2 56729 86.6495 80.1611 0001942 83.7990 276.3452 14.80240659146973 IRIDIUM 179 1 56730U 23068W 26037.09159447 .00001524 00000+0 19715-3 0 9994 2 56730 86.6741 88.7589 0002272 91.6749 268.4733 14.80244475146978